AMU371 ZUGY-VMMC

Flight info

Callsign AMU371
Flight time 1h 25m
Altitude 35100
Route DAGVO1A DAGVO W682 LAGEX G586 SJG B330 POU
Aircraft A321/M-SDE3FGHIRWY/LB1

Departure

Time 2026-04-24 10:03
Airport Guiyang Longdongbao International Airport (ZUGY)

Arrival

Time 2026-04-24 11:28
Airport Macau International Airport (VMMC)
Time Latitude Longitude Altitude Speed Heading
2026-04-24 09:49 26.54346 106.79857 3741 ft 0 kts 325°
2026-04-24 09:50 26.54332 106.79868 3741 ft 4 kts 325°
2026-04-24 09:51 26.54310 106.79886 3741 ft 4 kts 325°
2026-04-24 09:51 26.54287 106.79903 3741 ft 4 kts 325°
2026-04-24 09:51 26.54270 106.79916 3741 ft 4 kts 328°
2026-04-24 09:51 26.54246 106.79928 3741 ft 4 kts 359°
2026-04-24 09:52 26.54224 106.79925 3741 ft 4 kts
2026-04-24 09:52 26.54197 106.79920 3741 ft 4 kts
2026-04-24 09:52 26.54184 106.79917 3741 ft 0 kts 10°
2026-04-24 09:54 26.54190 106.79919 3741 ft 4 kts
2026-04-24 09:55 26.54235 106.79927 3741 ft 7 kts
2026-04-24 09:55 26.54291 106.79938 3741 ft 9 kts 10°
2026-04-24 09:55 26.54356 106.79951 3741 ft 10 kts
2026-04-24 09:55 26.54431 106.79965 3741 ft 12 kts
2026-04-24 09:56 26.54515 106.79982 3741 ft 13 kts 10°
2026-04-24 09:56 26.54607 106.80000 3741 ft 14 kts 10°
2026-04-24 09:56 26.54707 106.80019 3741 ft 15 kts
2026-04-24 09:56 26.54813 106.80039 3740 ft 16 kts 10°
2026-04-24 09:57 26.54928 106.80062 3740 ft 17 kts
2026-04-24 09:57 26.55046 106.80084 3740 ft 18 kts
2026-04-24 09:57 26.55171 106.80108 3739 ft 19 kts
2026-04-24 09:57 26.55302 106.80132 3739 ft 19 kts 10°
2026-04-24 09:58 26.55433 106.80161 3738 ft 16 kts 10°
2026-04-24 09:58 26.55494 106.80172 3738 ft 7 kts 10°
2026-04-24 09:58 26.55528 106.80213 3738 ft 8 kts 79°
2026-04-24 09:58 26.55520 106.80279 3739 ft 9 kts 99°
2026-04-24 09:59 26.55508 106.80356 3738 ft 11 kts 99°
2026-04-24 09:59 26.55493 106.80449 3737 ft 13 kts 101°
2026-04-24 09:59 26.55476 106.80553 3737 ft 14 kts 100°
2026-04-24 09:59 26.55460 106.80654 3734 ft 0 kts 100°
2026-04-24 10:00 26.55459 106.80659 3734 ft 1 kts 100°
2026-04-24 10:00 26.55459 106.80660 3734 ft 0 kts 100°
2026-04-24 10:01 26.55456 106.80681 3733 ft 6 kts 100°
2026-04-24 10:01 26.55446 106.80735 3733 ft 8 kts 105°
2026-04-24 10:01 26.55415 106.80782 3733 ft 8 kts 148°
2026-04-24 10:01 26.55370 106.80787 3733 ft 0 kts 187°
2026-04-24 10:02 26.55356 106.80785 3733 ft 19 kts 188°
2026-04-24 10:02 26.54941 106.80705 3734 ft 99 kts 189°
2026-04-24 10:02 26.54043 106.80531 3736 ft 161 kts 190°
2026-04-24 10:02 26.52791 106.80292 3984 ft 194 kts 190°
2026-04-24 10:03 26.51415 106.80080 4669 ft 202 kts 187°
2026-04-24 10:03 26.50038 106.79868 5548 ft 204 kts 189°
2026-04-24 10:03 26.48593 106.79613 6090 ft 213 kts 190°
2026-04-24 10:03 26.47085 106.79338 6385 ft 229 kts 189°
2026-04-24 10:04 26.45460 106.79218 6836 ft 235 kts 167°
2026-04-24 10:04 26.44051 106.80054 6984 ft 235 kts 129°
2026-04-24 10:04 26.43433 106.81687 6991 ft 232 kts 89°
2026-04-24 10:04 26.43820 106.83387 6979 ft 229 kts 64°
2026-04-24 10:05 26.44578 106.84964 6702 ft 229 kts 56°
2026-04-24 10:05 26.45613 106.86330 6736 ft 243 kts 46°
2026-04-24 10:05 26.46552 106.87958 6733 ft 257 kts 73°
2026-04-24 10:05 26.46754 106.90002 6731 ft 274 kts 91°
2026-04-24 10:06 26.46674 106.92156 6733 ft 278 kts 91°
2026-04-24 10:06 26.46508 106.96532 7939 ft 283 kts 91°
2026-04-24 10:06 26.46423 106.98718 8681 ft 286 kts 91°
2026-04-24 10:07 26.46330 107.00955 9394 ft 290 kts 91°
2026-04-24 10:07 26.46238 107.03212 10068 ft 294 kts 91°
2026-04-24 10:07 26.46145 107.05576 10339 ft 316 kts 91°
2026-04-24 10:07 26.46050 107.08112 10481 ft 339 kts 91°
2026-04-24 10:08 26.45944 107.10816 10710 ft 357 kts 91°
2026-04-24 10:08 26.45832 107.13617 11239 ft 365 kts 91°
2026-04-24 10:08 26.45717 107.16476 11826 ft 371 kts 92°
2026-04-24 10:08 26.45600 107.19368 12393 ft 376 kts 92°
2026-04-24 10:09 26.45483 107.22316 12980 ft 382 kts 92°
2026-04-24 10:09 26.45363 107.25286 13596 ft 386 kts 92°
2026-04-24 10:09 26.45237 107.28300 14164 ft 391 kts 91°
2026-04-24 10:09 26.45106 107.31357 14759 ft 396 kts 91°
2026-04-24 10:10 26.44979 107.34439 15334 ft 400 kts 91°
2026-04-24 10:10 26.44849 107.37557 15933 ft 404 kts 91°
2026-04-24 10:10 26.44715 107.40707 16493 ft 409 kts 91°
2026-04-24 10:10 26.44579 107.43897 17032 ft 414 kts 91°
2026-04-24 10:11 26.44442 107.47125 17560 ft 418 kts 91°
2026-04-24 10:11 26.44305 107.50381 18107 ft 422 kts 91°
2026-04-24 10:11 26.44165 107.53639 18644 ft 426 kts 91°
2026-04-24 10:11 26.44018 107.56967 19177 ft 431 kts 92°
2026-04-24 10:12 26.43868 107.60320 19702 ft 434 kts 92°
2026-04-24 10:12 26.43719 107.63692 20201 ft 438 kts 92°
2026-04-24 10:12 26.43573 107.67106 20699 ft 442 kts 92°
2026-04-24 10:12 26.43427 107.70541 21165 ft 446 kts 91°
2026-04-24 10:13 26.43276 107.74010 21677 ft 449 kts 92°
2026-04-24 10:13 26.43119 107.77510 22126 ft 453 kts 92°
2026-04-24 10:13 26.42959 107.81041 22564 ft 457 kts 92°
2026-04-24 10:13 26.42798 107.84585 23028 ft 460 kts 92°
2026-04-24 10:14 26.42634 107.88162 23463 ft 463 kts 92°
2026-04-24 10:14 26.42471 107.91760 23868 ft 466 kts 91°
2026-04-24 10:14 26.42305 107.95376 24262 ft 469 kts 92°
2026-04-24 10:14 26.42137 107.99024 24666 ft 472 kts 92°
2026-04-24 10:15 26.41964 108.02703 25007 ft 476 kts 92°
2026-04-24 10:15 26.41790 108.06400 25355 ft 480 kts 92°
2026-04-24 10:15 26.41614 108.10146 25698 ft 484 kts 92°
2026-04-24 10:15 26.41442 108.13860 26037 ft 487 kts 92°
2026-04-24 10:16 26.41264 108.17640 26407 ft 490 kts 92°
2026-04-24 10:16 26.41083 108.21445 26757 ft 494 kts 92°
2026-04-24 10:16 26.40898 108.25289 27075 ft 498 kts 93°
2026-04-24 10:16 26.40711 108.29151 27421 ft 500 kts 93°
2026-04-24 10:17 26.40523 108.33047 27728 ft 503 kts 93°
2026-04-24 10:17 26.40349 108.36955 28045 ft 506 kts 90°
2026-04-24 10:17 26.40452 108.40894 28283 ft 509 kts 86°
2026-04-24 10:17 26.40629 108.44860 28579 ft 512 kts 86°
2026-04-24 10:18 26.40804 108.48836 28862 ft 515 kts 86°
2026-04-24 10:18 26.40974 108.52836 29153 ft 518 kts 87°
2026-04-24 10:18 26.41144 108.56866 29446 ft 521 kts 87°
2026-04-24 10:18 26.41314 108.60905 29731 ft 523 kts 87°
2026-04-24 10:19 26.41481 108.64953 30126 ft 522 kts 87°
2026-04-24 10:19 26.41648 108.68995 30506 ft 522 kts 87°
2026-04-24 10:19 26.41816 108.73051 30847 ft 523 kts 87°
2026-04-24 10:19 26.41984 108.77098 31194 ft 524 kts 87°
2026-04-24 10:20 26.42151 108.81123 31494 ft 524 kts 88°
2026-04-24 10:20 26.42317 108.85185 31821 ft 525 kts 88°
2026-04-24 10:20 26.42480 108.89262 32135 ft 526 kts 88°
2026-04-24 10:20 26.42438 108.93342 32449 ft 525 kts 97°
2026-04-24 10:21 26.41823 108.97337 32741 ft 521 kts 108°
2026-04-24 10:21 26.40654 109.01135 33027 ft 516 kts 118°
2026-04-24 10:21 26.38973 109.04644 33302 ft 510 kts 129°
2026-04-24 10:21 26.36846 109.07754 33600 ft 501 kts 139°
2026-04-24 10:22 26.34356 109.10406 33899 ft 490 kts 149°
2026-04-24 10:22 26.31697 109.12787 34222 ft 489 kts 149°
2026-04-24 10:22 26.29051 109.15157 34515 ft 488 kts 149°
2026-04-24 10:22 26.26402 109.17534 34789 ft 489 kts 149°
2026-04-24 10:23 26.23753 109.19911 35044 ft 489 kts 149°
2026-04-24 10:23 26.18464 109.24651 35107 ft 487 kts 150°
2026-04-24 10:24 26.13192 109.29371 35100 ft 485 kts 150°
2026-04-24 10:24 26.07926 109.34072 35094 ft 485 kts 150°
2026-04-24 10:25 26.02667 109.38763 35103 ft 484 kts 149°
2026-04-24 10:25 25.97396 109.43462 35126 ft 487 kts 149°
2026-04-24 10:26 25.92147 109.48138 35129 ft 487 kts 149°
2026-04-24 10:26 25.86855 109.52840 35129 ft 486 kts 149°
2026-04-24 10:27 25.81572 109.57527 35133 ft 486 kts 149°
2026-04-24 10:27 25.76376 109.62347 35126 ft 492 kts 143°
2026-04-24 10:28 25.71436 109.67599 35126 ft 492 kts 143°
2026-04-24 10:28 25.66487 109.72848 35126 ft 492 kts 143°
2026-04-24 10:29 25.61528 109.78077 35129 ft 491 kts 143°
2026-04-24 10:29 25.56582 109.83289 35129 ft 491 kts 144°
2026-04-24 10:30 25.51635 109.88508 35123 ft 491 kts 143°
2026-04-24 10:30 25.46680 109.93733 35122 ft 491 kts 144°
2026-04-24 10:31 25.41729 109.98941 35115 ft 490 kts 144°
2026-04-24 10:31 25.37631 110.03250 35116 ft 489 kts 144°
2026-04-24 10:32 25.32689 110.08428 35115 ft 489 kts 144°
2026-04-24 10:32 25.26948 110.14438 35112 ft 489 kts 145°
2026-04-24 10:33 25.22811 110.18768 35113 ft 489 kts 145°
2026-04-24 10:33 25.17866 110.23944 35112 ft 489 kts 144°
2026-04-24 10:34 25.12956 110.29147 35113 ft 489 kts 144°
2026-04-24 10:34 25.08050 110.34362 35111 ft 490 kts 145°
2026-04-24 10:35 25.03123 110.39572 35116 ft 490 kts 145°
2026-04-24 10:35 24.98230 110.44734 35117 ft 490 kts 145°
2026-04-24 10:36 24.93305 110.49945 35115 ft 490 kts 145°
2026-04-24 10:36 24.88377 110.55150 35113 ft 491 kts 145°
2026-04-24 10:37 24.83437 110.60357 35115 ft 491 kts 146°
2026-04-24 10:37 24.78510 110.65564 35118 ft 491 kts 146°
2026-04-24 10:38 24.73595 110.70765 35116 ft 491 kts 146°
2026-04-24 10:38 24.68657 110.75957 35122 ft 491 kts 146°
2026-04-24 10:39 24.63725 110.81141 35125 ft 492 kts 145°
2026-04-24 10:39 24.58820 110.86422 35129 ft 492 kts 145°
2026-04-24 10:40 24.53952 110.91705 35129 ft 492 kts 145°
2026-04-24 10:40 24.49079 110.96969 35129 ft 491 kts 145°
2026-04-24 10:41 24.44216 111.02185 35125 ft 491 kts 146°
2026-04-24 10:41 24.39337 111.07410 35126 ft 490 kts 145°
2026-04-24 10:42 24.34451 111.12635 35127 ft 490 kts 145°
2026-04-24 10:42 24.29572 111.17856 35126 ft 490 kts 146°
2026-04-24 10:43 24.24690 111.23079 35121 ft 489 kts 146°
2026-04-24 10:43 24.19539 111.27758 35125 ft 470 kts 159°
2026-04-24 10:44 24.13836 111.31042 35130 ft 463 kts 164°
2026-04-24 10:44 24.08105 111.34252 35122 ft 462 kts 164°
2026-04-24 10:45 24.02386 111.37451 35118 ft 462 kts 164°
2026-04-24 10:45 23.96655 111.40649 35118 ft 462 kts 163°
2026-04-24 10:46 23.90928 111.43836 35102 ft 462 kts 163°
2026-04-24 10:46 23.85232 111.46998 35119 ft 463 kts 163°
2026-04-24 10:47 23.79485 111.50197 35129 ft 463 kts 163°
2026-04-24 10:47 23.73748 111.53394 35132 ft 463 kts 163°
2026-04-24 10:48 23.68011 111.56580 35136 ft 463 kts 163°
2026-04-24 10:48 23.62263 111.59767 35136 ft 463 kts 163°
2026-04-24 10:49 23.56523 111.62946 35137 ft 463 kts 163°
2026-04-24 10:49 23.50785 111.66118 35133 ft 463 kts 163°
2026-04-24 10:50 23.45027 111.69296 35127 ft 463 kts 163°
2026-04-24 10:50 23.39277 111.72475 35133 ft 463 kts 163°
2026-04-24 10:51 23.33532 111.75653 35125 ft 464 kts 163°
2026-04-24 10:51 23.27782 111.78847 35124 ft 465 kts 160°
2026-04-24 10:51 23.25051 111.80835 35119 ft 480 kts 149°
2026-04-24 10:52 23.22645 111.83424 35114 ft 495 kts 137°
2026-04-24 10:52 23.20696 111.86566 35109 ft 508 kts 124°
2026-04-24 10:52 23.19323 111.90144 35105 ft 519 kts 110°
2026-04-24 10:53 23.17681 111.97841 35102 ft 524 kts 108°
2026-04-24 10:53 23.16084 112.05532 35116 ft 525 kts 108°
2026-04-24 10:54 23.14459 112.13306 35115 ft 525 kts 108°
2026-04-24 10:54 23.12838 112.20993 35123 ft 525 kts 108°
2026-04-24 10:55 23.11210 112.28740 35150 ft 526 kts 108°
2026-04-24 10:55 23.09585 112.36478 35161 ft 525 kts 108°
2026-04-24 10:56 23.07951 112.44213 35166 ft 525 kts 108°
2026-04-24 10:56 23.06763 112.52045 35167 ft 530 kts 98°
2026-04-24 10:57 23.06218 112.60031 35165 ft 530 kts 97°
2026-04-24 10:57 23.05697 112.67988 35171 ft 529 kts 98°
2026-04-24 10:58 23.05166 112.75949 35144 ft 528 kts 98°
2026-04-24 10:58 23.04901 112.79868 34353 ft 533 kts 97°
2026-04-24 10:58 23.04626 112.83909 33343 ft 534 kts 97°
2026-04-24 10:58 23.04354 112.87933 31691 ft 534 kts 97°
2026-04-24 10:59 23.04079 112.91931 30136 ft 533 kts 97°
2026-04-24 10:59 23.03800 112.95931 28781 ft 526 kts 98°
2026-04-24 10:59 23.03526 112.99850 27571 ft 515 kts 97°
2026-04-24 10:59 23.03257 113.03683 26388 ft 502 kts 97°
2026-04-24 11:00 23.02998 113.07418 25206 ft 490 kts 98°
2026-04-24 11:00 23.02746 113.11065 24018 ft 478 kts 98°
2026-04-24 11:00 23.02496 113.14613 22851 ft 466 kts 98°
2026-04-24 11:00 23.02080 113.18039 21637 ft 451 kts 107°
2026-04-24 11:01 23.01102 113.21207 20425 ft 436 kts 119°
2026-04-24 11:01 22.99741 113.24105 19191 ft 428 kts 122°
2026-04-24 11:01 22.98374 113.26956 17981 ft 422 kts 121°
2026-04-24 11:01 22.97033 113.29767 16779 ft 416 kts 121°
2026-04-24 11:02 22.95714 113.32532 15607 ft 409 kts 120°
2026-04-24 11:02 22.94434 113.35219 14437 ft 402 kts 120°
2026-04-24 11:02 22.93166 113.37882 13268 ft 394 kts 120°
2026-04-24 11:02 22.91919 113.40500 12215 ft 390 kts 119°
2026-04-24 11:03 22.90684 113.43080 11849 ft 380 kts 119°
2026-04-24 11:03 22.89254 113.45452 11375 ft 372 kts 133°
2026-04-24 11:03 22.87406 113.47350 10893 ft 363 kts 146°
2026-04-24 11:03 22.85264 113.48693 10702 ft 348 kts 160°
2026-04-24 11:04 22.82990 113.49487 10615 ft 342 kts 171°
2026-04-24 11:04 22.80660 113.50014 10541 ft 341 kts 171°
2026-04-24 11:04 22.78352 113.50533 10437 ft 334 kts 171°
2026-04-24 11:04 22.76124 113.51035 10295 ft 321 kts 171°
2026-04-24 11:05 22.73973 113.51519 10179 ft 309 kts 171°
2026-04-24 11:05 22.71906 113.51985 10019 ft 299 kts 172°
2026-04-24 11:05 22.69890 113.52436 9783 ft 292 kts 171°
2026-04-24 11:05 22.67902 113.52882 9660 ft 291 kts 171°
2026-04-24 11:06 22.65923 113.53325 9537 ft 290 kts 171°
2026-04-24 11:06 22.63945 113.53764 9410 ft 290 kts 172°
2026-04-24 11:06 22.61973 113.54202 9284 ft 288 kts 172°
2026-04-24 11:06 22.60012 113.54641 9158 ft 288 kts 171°
2026-04-24 11:07 22.56099 113.55512 8908 ft 286 kts 171°
2026-04-24 11:07 22.54152 113.55946 8783 ft 285 kts 172°
2026-04-24 11:07 22.52232 113.56466 8658 ft 286 kts 166°
2026-04-24 11:08 22.50359 113.57081 8534 ft 285 kts 166°
2026-04-24 11:08 22.48462 113.57700 8409 ft 284 kts 166°
2026-04-24 11:08 22.46570 113.58317 8284 ft 283 kts 166°
2026-04-24 11:08 22.44684 113.58934 8159 ft 283 kts 166°
2026-04-24 11:09 22.42805 113.59550 8029 ft 282 kts 166°
2026-04-24 11:09 22.40942 113.60162 7909 ft 281 kts 166°
2026-04-24 11:09 22.39060 113.60780 7877 ft 279 kts 166°
2026-04-24 11:09 22.37826 113.61185 7941 ft 281 kts 167°
2026-04-24 11:10 22.35949 113.61796 7953 ft 281 kts 167°
2026-04-24 11:10 22.34080 113.62405 7953 ft 281 kts 167°
2026-04-24 11:10 22.32207 113.63014 7953 ft 281 kts 167°
2026-04-24 11:10 22.30342 113.63620 7966 ft 280 kts 167°
2026-04-24 11:11 22.28441 113.63985 7956 ft 276 kts 181°
2026-04-24 11:11 22.26544 113.63817 7868 ft 272 kts 195°
2026-04-24 11:11 22.24733 113.63260 7740 ft 270 kts 199°
2026-04-24 11:11 22.22933 113.62692 7618 ft 270 kts 198°
2026-04-24 11:12 22.21129 113.62128 7490 ft 269 kts 198°
2026-04-24 11:12 22.19332 113.61568 7368 ft 269 kts 198°
2026-04-24 11:12 22.17534 113.61010 7242 ft 269 kts 198°
2026-04-24 11:12 22.15765 113.60462 7109 ft 258 kts 198°
2026-04-24 11:13 22.14128 113.59972 7016 ft 238 kts 195°
2026-04-24 11:13 22.12487 113.59789 6938 ft 238 kts 182°
2026-04-24 11:13 22.10831 113.59828 6947 ft 238 kts 182°
2026-04-24 11:13 22.09178 113.59859 6949 ft 238 kts 182°
2026-04-24 11:14 22.07520 113.59888 6949 ft 238 kts 182°
2026-04-24 11:14 22.05874 113.59916 6944 ft 232 kts 182°
2026-04-24 11:14 22.04255 113.59946 6937 ft 236 kts 182°
2026-04-24 11:14 22.02611 113.59973 6885 ft 237 kts 182°
2026-04-24 11:15 22.00995 113.60003 6831 ft 236 kts 182°
2026-04-24 11:15 21.99318 113.60036 6777 ft 237 kts 182°
2026-04-24 11:15 21.97687 113.60071 6714 ft 229 kts 182°
2026-04-24 11:15 21.96148 113.60107 6633 ft 214 kts 182°
2026-04-24 11:16 21.94708 113.60137 6461 ft 199 kts 182°
2026-04-24 11:16 21.93357 113.60161 6271 ft 191 kts 183°
2026-04-24 11:16 21.92033 113.60183 6052 ft 190 kts 183°
2026-04-24 11:16 21.90716 113.60206 5842 ft 189 kts 182°
2026-04-24 11:17 21.89394 113.60231 5630 ft 189 kts 182°
2026-04-24 11:17 21.88075 113.60255 5419 ft 190 kts 182°
2026-04-24 11:17 21.86747 113.60279 5211 ft 191 kts 182°
2026-04-24 11:17 21.85429 113.60514 5053 ft 195 kts 166°
2026-04-24 11:18 21.84205 113.61168 4914 ft 199 kts 148°
2026-04-24 11:18 21.83214 113.62174 4753 ft 194 kts 131°
2026-04-24 11:18 21.82534 113.63426 4604 ft 194 kts 114°
2026-04-24 11:18 21.82277 113.64350 4508 ft 195 kts 102°
2026-04-24 11:19 21.82229 113.65796 4460 ft 194 kts 83°
2026-04-24 11:19 21.82619 113.67158 4390 ft 186 kts 62°
2026-04-24 11:19 21.83368 113.68262 4335 ft 181 kts 43°
2026-04-24 11:19 21.84378 113.69042 4279 ft 178 kts 24°
2026-04-24 11:20 21.85543 113.69441 4219 ft 175 kts
2026-04-24 11:20 21.86740 113.69439 4137 ft 171 kts 348°
2026-04-24 11:20 21.87873 113.69086 4049 ft 169 kts 338°
2026-04-24 11:20 21.88982 113.68678 3966 ft 168 kts 338°
2026-04-24 11:21 21.90087 113.68273 3890 ft 167 kts 338°
2026-04-24 11:21 21.91183 113.67871 3815 ft 166 kts 339°
2026-04-24 11:21 21.92209 113.67496 3733 ft 147 kts 338°
2026-04-24 11:21 21.93159 113.67147 3618 ft 142 kts 339°
2026-04-24 11:22 21.94091 113.66804 3502 ft 141 kts 339°
2026-04-24 11:22 21.95018 113.66464 3388 ft 140 kts 339°
2026-04-24 11:22 21.95942 113.66125 3274 ft 140 kts 339°
2026-04-24 11:22 21.96859 113.65788 3177 ft 139 kts 339°
2026-04-24 11:23 21.97774 113.65452 3119 ft 138 kts 339°
2026-04-24 11:23 21.98673 113.65122 3053 ft 138 kts 340°
2026-04-24 11:23 21.99581 113.64788 2920 ft 137 kts 340°
2026-04-24 11:23 22.00483 113.64457 2760 ft 137 kts 340°
2026-04-24 11:24 22.01379 113.64128 2591 ft 136 kts 340°
2026-04-24 11:24 22.02273 113.63800 2411 ft 135 kts 340°
2026-04-24 11:24 22.03160 113.63473 2234 ft 135 kts 340°
2026-04-24 11:24 22.04045 113.63148 2056 ft 134 kts 340°
2026-04-24 11:25 22.04920 113.62827 1878 ft 133 kts 340°
2026-04-24 11:25 22.05790 113.62507 1705 ft 132 kts 340°
2026-04-24 11:25 22.06658 113.62188 1528 ft 131 kts 341°
2026-04-24 11:25 22.07520 113.61871 1356 ft 131 kts 341°
2026-04-24 11:26 22.08383 113.61554 1183 ft 130 kts 341°
2026-04-24 11:26 22.09238 113.61239 1009 ft 130 kts 341°
2026-04-24 11:26 22.10089 113.60926 836 ft 130 kts 341°
2026-04-24 11:26 22.10946 113.60611 663 ft 130 kts 341°
2026-04-24 11:27 22.11800 113.60297 483 ft 130 kts 341°
2026-04-24 11:27 22.12656 113.59982 319 ft 130 kts 341°
2026-04-24 11:27 22.13517 113.59665 145 ft 131 kts 341°
2026-04-24 11:27 22.14372 113.59350 29 ft 125 kts 341°
2026-04-24 11:28 22.15068 113.59098 28 ft 88 kts 341°
2026-04-24 11:28 22.15541 113.58922 27 ft 53 kts 341°
2026-04-24 11:28 22.15762 113.58841 27 ft 25 kts 342°
2026-04-24 11:28 22.15912 113.58787 29 ft 20 kts 341°
2026-04-24 11:29 22.16036 113.58742 30 ft 18 kts 341°
2026-04-24 11:29 22.16148 113.58701 29 ft 17 kts 340°
2026-04-24 11:29 22.16208 113.58598 29 ft 18 kts 281°
2026-04-24 11:29 22.16233 113.58462 29 ft 19 kts 282°
2026-04-24 11:30 22.16255 113.58349 29 ft 13 kts 281°
2026-04-24 11:30 22.16242 113.58246 29 ft 15 kts 251°
2026-04-24 11:30 22.16206 113.58137 29 ft 16 kts 251°
2026-04-24 11:30 22.16168 113.58018 29 ft 17 kts 251°
2026-04-24 11:31 22.16128 113.57893 29 ft 18 kts 251°
2026-04-24 11:31 22.16100 113.57809 29 ft 10 kts 249°
2026-04-24 11:31 22.16052 113.57754 29 ft 9 kts 202°
2026-04-24 11:31 22.16013 113.57743 29 ft 6 kts 194°
2026-04-24 11:32 22.15989 113.57736 29 ft 3 kts 194°
2026-04-24 11:32 22.15976 113.57727 29 ft 1 kts 246°
2026-04-24 11:32 22.15975 113.57716 29 ft 1 kts 263°
2026-04-24 11:32 22.15975 113.57705 29 ft 2 kts 269°
2026-04-24 11:33 22.15975 113.57697 29 ft 1 kts 272°
2026-04-24 11:33 22.15977 113.57692 29 ft 1 kts 287°
2026-04-24 11:33 22.15979 113.57684 29 ft 1 kts 285°
2026-04-24 11:33 22.15981 113.57676 29 ft 1 kts 285°
2026-04-24 11:34 22.15983 113.57670 29 ft 1 kts 285°
2026-04-24 11:34 22.15984 113.57666 29 ft 0 kts 286°
2026-04-24 11:34 22.15985 113.57663 29 ft 0 kts 286°